This is the latest recevied weather packets stored in our database for station/object NQ9F. If no packets are shown the sender has not sent any weather packets the latest 10 day(s).
| Time | Temp. | Humidity | Pressure | Rain* | Wind** | Luminosity | Snow |
|---|---|---|---|---|---|---|---|
| 1777661094 | 16.11° C | 67% | 1016.4 hPa | 0 mm | - | 216 W/m² | - |
| 1777660486 | 16.11° C | 66% | 1016.7 hPa | 0 mm | - | 200 W/m² | - |
| 1777659576 | 16.11° C | 66% | 1017 hPa | 0 mm | - | 227 W/m² | - |
| 1777656850 | 16.11° C | 73% | 1016.9 hPa | 0 mm | - | 544 W/m² | - |
| 1777656545 | 16.11° C | 73% | 1017.2 hPa | 0 mm | - | 433 W/m² | - |
| 1777655936 | 16.11° C | 71% | 1017.2 hPa | 0 mm | - | 474 W/m² | - |
| 1777655633 | 16.11° C | 70% | 1017.3 hPa | 0 mm | - | 407 W/m² | - |
| 1777653512 | 15.56° C | 77% | 1018 hPa | 0 mm | - | 494 W/m² | - |
| 1777653209 | 15° C | 79% | 1018 hPa | 0 mm | - | 758 W/m² | - |
| 1777652906 | 15.56° C | 77% | 1017.9 hPa | 0 mm | - | 583 W/m² | - |
| 1777652603 | 15.56° C | 78% | 1017.5 hPa | 0 mm | - | 546 W/m² | - |
| 1777652300 | 15° C | 79% | 1017.6 hPa | 0 mm | - | 836 W/m² | - |
| 1777651997 | 15° C | 78% | 1017.7 hPa | 0 mm | - | 1070 W/m² | - |
| 1777651693 | 15° C | 79% | 1017.8 hPa | 0 mm | - | 357 W/m² | - |
| 1777651390 | 15° C | 80% | 1017.8 hPa | 0 mm | - | 400 W/m² | - |
| 1777651088 | 14.44° C | 80% | 1017.7 hPa | 0 mm | - | 371 W/m² | - |
| 1777650784 | 14.44° C | 80% | 1017.9 hPa | 0 mm | - | 319 W/m² | - |
| 1777650481 | 13.89° C | 80% | 1017.9 hPa | 0 mm | - | 234 W/m² | - |
| 1777649875 | 13.89° C | 81% | 1017.6 hPa | 0 mm | - | 270 W/m² | - |
| 1777649573 | 13.89° C | 84% | 1017.5 hPa | 0 mm | - | 216 W/m² | - |
| 1777649269 | 13.89° C | 86% | 1017.6 hPa | 0 mm | - | 231 W/m² | - |
| 1777648966 | 13.89° C | 87% | 1017.5 hPa | 0 mm | - | 303 W/m² | - |
| 1777648664 | 13.89° C | 87% | 1017.6 hPa | 0 mm | - | 157 W/m² | - |
| 1777648359 | 13.33° C | 89% | 1017.6 hPa | 0 mm | - | 122 W/m² | - |
| 1777648056 | 13.33° C | 89% | 1017.5 hPa | 0 mm | - | 112 W/m² | - |
* Rain latest hour (hover to see other rain measurements)
** Current wind speed in m/s (hover to see current wind gust speed)